Weather History for Orlando, FL

Change the Weather History Date:

Monday, February 3, 2014

  Actual Average Record
Temperature  
Mean Temperature 73 °F -  
Max Temperature 84 °F 68 °F 84 °F (2014)
Min Temperature 62 °F 50 °F 45 °F (2003)
Cooling Degree Days 8    
Growing Degree Days 23 (Base 50)    
Moisture  
Dew Point 65 °F    
Average Humidity 86    
Maximum Humidity 100    
Minimum Humidity 46    
Precipitation  
Precipitation 0.00 in - - ()
Sea Level Pressure  
Sea Level Pressure 30.09 in    
Wind  
Wind Speed 2 mph (SW)    
Max Wind Speed 12 mph    
Max Gust Speed 16 mph    
Visibility 6 miles    
Events Fog    
Averages and records for this station are not official NWS values.
T = Trace of Precipitation, MM = Missing Value Source: NWS Daily Summary

Daily Weather History Graph

Daily Weather History Graph

Search for Another Location

Airport:

Trip Planner

Search our weather history database for the weather conditions in past years. The results will help you decide how hot, cold, wet, or windy it might be!

Date:

Astronomy

Feb. 03, 2014 Rise Set
Actual Time 7:12 AM EST 6:06 PM EST
Civil Twilight 6:47 AM EST 6:31 PM EST
Nautical Twilight 6:19 AM EST 6:59 PM EST
Astronomical Twilight 5:51 AM EST 7:27 PM EST
Moon 9:38 AM EST (2/3) 10:27 PM EST (2/3)
Length of Visible Light 11h 43m
Length of Day
10h 54m
Waxing Crescent, 19% of the Moon is Illuminated
Feb 3
Waxing Crescent
Feb 6
First Quarter
Feb 14
Full
Feb 22
Last Quarter
Mar 1
New

Hourly Weather History & Observations

Time (EST) Temp. Heat Index Dew Point Humidity Pressure Visibility Wind Dir Wind Speed Gust Speed Precip Events Conditions
12:53 AM 66.9 °F - 66.0 °F 97% 30.09 in 10.0 mi SSE 4.6 mph - N/A   Clear
1:53 AM 66.9 °F - 66.0 °F 97% 30.09 in 7.0 mi Calm Calm - N/A   Clear
2:00 AM 66.2 °F - 66.2 °F 100% 30.08 in 1.8 mi Calm Calm - N/A   Clear
2:15 AM 66.2 °F - 66.2 °F 100% 30.08 in 2.0 mi Calm Calm - N/A   Clear
2:22 AM 66.2 °F - 66.2 °F 100% 30.07 in 1.5 mi SW 3.5 mph - N/A   Clear
2:31 AM 66.2 °F - 64.4 °F 94% 30.07 in 2.5 mi SW 3.5 mph - N/A   Clear
2:38 AM 66.2 °F - 64.4 °F 94% 30.07 in 1.0 mi SW 3.5 mph - N/A   Mist
2:46 AM 66.2 °F - 66.2 °F 100% 30.07 in 2.0 mi Calm Calm - N/A   Partly Cloudy
2:53 AM 64.9 °F - 64.9 °F 100% 30.08 in 1.2 mi Calm Calm - N/A   Partly Cloudy
2:56 AM 64.4 °F - 64.4 °F 100% 30.07 in 0.8 mi Calm Calm - N/A   Mist
3:37 AM 66.2 °F - 64.4 °F 94% 30.07 in 0.8 mi Calm Calm - N/A   Overcast
3:53 AM 64.9 °F - 64.9 °F 100% 30.08 in 0.5 mi Calm Calm - N/A Fog Fog
4:12 AM 62.6 °F - 62.6 °F 100% 30.07 in 0.2 mi Calm Calm - N/A Fog Fog
4:21 AM 64.4 °F - 62.6 °F 94% 30.07 in 0.5 mi Calm Calm - N/A Fog Fog
4:53 AM 64.0 °F - 63.0 °F 96% 30.09 in 0.5 mi Calm Calm - N/A Fog Fog
5:09 AM 64.4 °F - 64.4 °F 100% 30.08 in 2.0 mi Calm Calm - N/A   Mostly Cloudy
5:17 AM 64.4 °F - 64.4 °F 100% 30.08 in 1.0 mi Calm Calm - N/A   Overcast
5:25 AM 64.4 °F - 64.4 °F 100% 30.08 in 0.8 mi Calm Calm - N/A   Overcast
5:32 AM 64.4 °F - 64.4 °F 100% 30.09 in 2.0 mi Calm Calm - N/A   Overcast
5:39 AM 64.4 °F - 64.4 °F 100% 30.08 in 6.0 mi Calm Calm - N/A   Overcast
5:45 AM 64.4 °F - 64.4 °F 100% 30.08 in 1.5 mi Calm Calm - N/A   Overcast
5:53 AM 64.9 °F - 64.0 °F 97% 30.10 in 0.8 mi Calm Calm - N/A   Overcast
6:10 AM 64.4 °F - 62.6 °F 94% 30.09 in 0.8 mi Calm Calm - N/A   Overcast
6:18 AM 64.4 °F - 62.6 °F 94% 30.09 in 0.8 mi Calm Calm - N/A   Overcast
6:53 AM 64.0 °F - 64.0 °F 100% 30.11 in 5.0 mi Calm Calm - N/A   Overcast
7:01 AM 64.4 °F - 64.4 °F 100% 30.10 in 5.0 mi Calm Calm - N/A   Overcast
7:53 AM 64.9 °F - 64.9 °F 100% 30.12 in 6.0 mi Calm Calm - N/A   Overcast
8:53 AM 69.1 °F - 66.9 °F 93% 30.14 in 10.0 mi Calm Calm - N/A   Mostly Cloudy
9:53 AM 73.9 °F - 70.0 °F 87% 30.15 in 10.0 mi SSW 5.8 mph - N/A   Mostly Cloudy
10:03 AM 73.4 °F - 69.8 °F 88% 30.14 in 10.0 mi SSW 9.2 mph - N/A   Mostly Cloudy
10:53 AM 75.9 °F - 68.0 °F 76% 30.14 in 10.0 mi South 11.5 mph - N/A   Mostly Cloudy
11:53 AM 80.1 °F 82.3 °F 66.9 °F 64% 30.12 in 10.0 mi South 10.4 mph - N/A   Mostly Cloudy
12:02 PM 78.8 °F - 68.0 °F 69% 30.10 in 10.0 mi West 10.4 mph - N/A   Mostly Cloudy
12:33 PM 77.0 °F - 68.0 °F 74% 30.09 in 10.0 mi WNW 5.8 mph - N/A   Mostly Cloudy
12:53 PM 78.1 °F - 68.0 °F 71% 30.09 in 10.0 mi Variable 3.5 mph - N/A   Scattered Clouds
1:53 PM 84.0 °F 84.9 °F 63.0 °F 49% 30.05 in 10.0 mi SW 10.4 mph 16.1 mph N/A   Partly Cloudy
2:53 PM 84.0 °F 84.5 °F 62.1 °F 47% 30.04 in 10.0 mi South 8.1 mph - N/A   Partly Cloudy
3:53 PM 84.0 °F 84.4 °F 61.0 °F 46% 30.04 in 10.0 mi Variable 4.6 mph - N/A   Scattered Clouds
4:53 PM 82.9 °F 83.3 °F 61.0 °F 47% 30.04 in 10.0 mi West 8.1 mph - N/A   Scattered Clouds
5:53 PM 81.0 °F 81.9 °F 62.1 °F 52% 30.05 in 10.0 mi West 3.5 mph - N/A   Clear
6:53 PM 77.0 °F - 62.1 °F 60% 30.06 in 10.0 mi Calm Calm - N/A   Clear
7:53 PM 75.0 °F - 63.0 °F 66% 30.08 in 10.0 mi Calm Calm - N/A   Mostly Cloudy
8:53 PM 73.0 °F - 66.9 °F 81% 30.10 in 10.0 mi SSE 4.6 mph - N/A   Partly Cloudy
9:53 PM 71.1 °F - 66.9 °F 87% 30.11 in 10.0 mi Calm Calm - N/A   Clear
10:53 PM 71.1 °F - 63.0 °F 75% 30.11 in 10.0 mi Calm Calm - N/A   Clear
11:53 PM 68.0 °F - 63.0 °F 84% 30.11 in 10.0 mi Calm Calm - N/A   Clear